Location: Gleizolles
(44.4833°N, 6.7667°E)
Time: 14:52:43
(UTC+00:00)

deb Explorer IX - Pass Details

Date: 27 June 2024
Orbit: 510 x 878 km, 38.7° (Epoch: 21 July)

Event Time Altitude Azimuth Distance (km) Brightness Sun altitude
Rises 06:45:23 0° 242° (WSW) 2,657 ? 28.2°
Reaches altitude 10° 06:47:40 10° 233° (SW) 1,804 ? 28.6°
Maximum altitude 06:51:24 34° 168° (SSE) 962 ? 29.2°
Drops below altitude 10° 06:55:29 10° 104° (ESE) 1,975 ? 30.0°
Sets 06:58:06 0° 95° (E) 2,953 ? 30.4°
